Home > Time Zones > World Clock > Weather > Italy > Genoa > Past weeks

Flag for Italy Weather past 2 weeks in Genoa, Italy

Now
50 °F

Partly cloudy.


Feels Like: 43 °F
Forecast: 41 / 59 °F
Wind: 21 mph from North

Location: Genova / Sestri

Current Time: Mar 5, 2015 at 6:18:02 AM

Latest Report: Mar 5, 2015 at 5:50 AM


Visibility: N/A

Pressure: 30.01 "Hg

Humidity: 37%

Dew point: 25 °F

Location of GenoaLocation

Historic Weather in Genoa — Graph

°F

Genoa temperature yesterday

Maximum temperature yesterday: 59 °F (at 10:50 AM)
Minimum temperature yesterday: 46 °F (at 11:20 PM)
Average temperature yesterday: 53 °F

Past Weeks' High & Low Weather Summary

 TemperatureHumidityPressure
High61 °F (Mar 2, 12:50 PM)100% (Feb 21, 8:50 PM)30.54 "Hg (Feb 21, 8:50 PM)
Low41 °F (Feb 22, 2:20 AM)20% (Feb 25, 5:50 PM)29.47 "Hg (Feb 22, 2:20 AM)
Average51 °F63%29.96 "Hg
* Reported Feb 18 4:50 AM — Mar 5 4:20 AM, Genoa, Weather by CustomWeather, © 2015

Note: Actual official high and low records may vary slightly from our data, if they occured in-between our weather recording intervals... More about our weather records

Advertising

Genoa weather history for previous 24 hours

 ConditionsComfort  
Time TempWeatherWind HumidityBarometerVisibility
4:20 AM
Thu, Mar 5
50 °FPartly cloudy.24 mph43%30.01 "HgN/A
3:50 AM50 °FPartly cloudy.22 mph43%30.01 "HgN/A
2:50 AM48 °FPartly cloudy.26 mph54%30.01 "HgN/A
2:20 AM46 °FPartly cloudy.25 mph66%30.01 "HgN/A
1:50 AM46 °FPartly cloudy.24 mph66%30.04 "HgN/A
1:20 AM46 °FPartly cloudy.24 mph66%30.01 "HgN/A
12:50 AM48 °FPartly cloudy.29 mph62%29.98 "HgN/A
12:20 AM46 °FPartly cloudy.28 mph66%29.95 "HgN/A
11:50 PM
Wed, Mar 4
46 °FPartly cloudy.28 mph66%29.95 "HgN/A
11:20 PM46 °FPartly cloudy.33 mph66%29.95 "HgN/A
10:20 PM48 °FLight rain. Partly cloudy.26 mph66%29.98 "HgN/A
9:50 PM52 °FPartly cloudy.18 mph62%29.98 "HgN/A
9:20 PM52 °FPartly cloudy.18 mph54%29.95 "HgN/A
8:50 PM54 °FPartly cloudy.18 mph54%29.95 "HgN/A
8:20 PM54 °FPartly cloudy.16 mph54%29.95 "HgN/A
7:50 PM54 °FPartly cloudy.16 mph54%29.98 "HgN/A
7:20 PM54 °FPartly cloudy.8 mph58%29.98 "HgN/A
6:50 PM54 °FPassing clouds.8 mph54%29.98 "HgN/A
6:20 PM54 °FPassing clouds.8 mph63%29.98 "HgN/A
5:50 PM55 °FBroken clouds.3 mph55%29.98 "HgN/A
5:20 PM55 °FScattered clouds.7 mph51%29.98 "HgN/A
4:50 PM55 °FScattered clouds.9 mph55%29.98 "HgN/A
4:20 PM55 °FPartly sunny.12 mph59%30.01 "HgN/A
3:50 PM55 °FBroken clouds.10 mph63%30.01 "Hg5 mi
3:20 PM57 °FBroken clouds.6 mph67%30.01 "HgN/A
2:50 PM57 °FBroken clouds.5 mph67%30.01 "HgN/A
2:20 PM57 °FPartly sunny.3 mph72%30.04 "HgN/A
1:50 PM57 °FBroken clouds.5 mph72%30.04 "HgN/A
1:20 PM57 °FPartly sunny.6 mph72%30.07 "HgN/A
12:50 PM57 °FPartly sunny.8 mph72%30.07 "HgN/A
12:20 PM59 °FScattered clouds.2 mph59%30.09 "HgN/A
11:50 AM57 °FScattered clouds.3 mph59%30.09 "HgN/A
11:20 AM57 °FScattered clouds.2 mph59%30.09 "HgN/A
10:50 AM59 °FScattered clouds.3 mph55%30.12 "HgN/A
10:20 AM55 °FPartly sunny.8 mph59%30.12 "HgN/A
9:50 AM54 °FPartly sunny.6 mph63%30.15 "HgN/A
9:20 AM52 °FPartly sunny.7 mph62%30.15 "HgN/A
8:50 AM52 °FPartly sunny.6 mph67%30.15 "HgN/A
8:20 AM52 °FPartly sunny.6 mph67%30.15 "HgN/A
7:50 AM50 °FPartly sunny.3 mph71%30.15 "HgN/A
7:20 AM50 °FPartly sunny.3 mph71%30.15 "HgN/A
6:50 AM50 °FPassing clouds.3 mph76%30.15 "HgN/A
6:20 AM50 °FPassing clouds.5 mph76%30.15 "HgN/A
Weather by CustomWeather, © 2015

See weather overviewHow to use our weather pages